www.pogodaiklimat.ru
ПОГОДА на Агалега

Архив погоды на Агалега (Маврикий)

Время
(UTC), дата
15 16.01
18 16.01
00 17.01
03 17.01
06 17.01
09 17.01
12 17.01
15 17.01
18 17.01
00 18.01
03 18.01
06 18.01
09 18.01
12 18.01
15 18.01
18 18.01
00 19.01
03 19.01
06 19.01
09 19.01
12 19.01
15 19.01
18 19.01
00 20.01
03 20.01
06 20.01
09 20.01
12 20.01
15 20.01
18 20.01
00 21.01
03 21.01
06 21.01
09 21.01
12 21.01
15 21.01
18 21.01
00 22.01
06 22.01
09 22.01
12 22.01
15 22.01
18 22.01
00 23.01
03 23.01
06 23.01
09 23.01
12 23.01
Ветер
(напр.,м/с)
Видим. Явления Облачность Т
(С)
Тd
(С)
f
(%)
Тe
(С)
Тes
(С)
Комфортность P
(гПа)
Po
(гПа)
Тmin
(С)
Tmax
(С)
R
(мм)
R24
(мм)
S
(см)
штиль 0 20 км 10/3 540 м
[Cu Sc Cs]
+28.0 +25.9 88 +42 +42 опасность
перегрева
1009.6 1009.3
штиль 0 20 км 9/5 540 м
[Cu Sc Cs]
+26.3 +25.3 94 +37 +37 очень
душно
1010.5 1010.2 +32.6
штиль 0 20 км 10/8 540 м
[Cu Sc Cs]
+25.0 +24.3 96 +35 +35 очень
душно
1008.6 1008.3
штиль 0 25 км 6/4 500 м
[Cu Sc Ac lent Ci sp]
+25.0 +24.3 96 +35 +36 очень
душно
1010.1 1009.8
СВ 3 25 км 9/6 540 м
[Cu Sc Ac und Cs]
+30.8 +25.1 72 +45 +48 опасность
перегрева
1010.7 1010.4 +24.3
СВ 2 18 км осадки на расстоянии 9/5 450 м
[Cb calv Cs]
+31.6 +25.3 69 +46 +55 опасность
перегрева
1009.6 1009.3
штиль 0 18 км слаб. ливневой дождь 9/5 500 м
[Cu Sc Cs]
+29.2 +27.2 89 +46 +51 опасность
перегрева
1008.1 1007.8 3
штиль 0 18 км осадки на расстоянии {ливн. дождь} 9/5 450 м
[Cb calv Cs]
+28.5 +25.7 85 +42 +42 опасность
перегрева
1009.8 1009.5 0.1
З 2 20 км {ливн. дождь} 8/5 540 м
[Cu Sc Cs]
+28.0 +25.3 85 +41 +41 опасность
перегрева
1011.3 1011.0 +32.3 4
штиль 0 18 км осадки на расстоянии 3/3 450 м
[Cb calv Ci sp]
+27.4 +25.2 88 +40 +40 очень
душно
1008.9 1008.6
СЗ 2 18 км осадки на расстоянии 6/6 480 м
[Cb calv Ci sp]
+28.3 +25.9 87 +42 +43 опасность
перегрева
1010.5 1010.2
З 2 18 км осадки на расстоянии {гроза} 8/6 420 м
[Cb cap Ci sp]
+31.0 +26.1 75 +46 +52 опасность
перегрева
1012.0 1011.7 +26.5 4 4
штиль 0 8000 м гроза, ливневой дождь 10/10 420 м
[Cb cap]
+28.4 +26.3 88 +43 +43 опасность
перегрева
1010.7 1010.4 0.5
штиль 0 10 км в посл. час гроза {ливн. дождь} 10/10 420 м
[Cb cap]
+26.0 +25.3 96 +38 +38 очень
душно
1010.0 1009.7 20
штиль 0 12 км слаб. дождь {ливн. дождь} 10/10
[Cb cap]
+26.2 +25.4 95 +38 +38 очень
душно
1011.3 1011.0 1
штиль 0 15 км осадки на расстоянии {ливн. дождь, дождь} 10/5 480 м
[Cu Sc Cs]
+25.7 +25.4 98 +37 +37 очень
душно
1012.0 1011.7 +32.1 21
штиль 0 15 км осадки на расстоянии 9/6 450 м
[Cb calv Ci sp]
+26.0 +25.3 96 +38 +38 очень
душно
1010.0 1009.7
штиль 0 12 км осадки на расстоянии 9/6 420 м
[Cb cap Ci sp]
+26.6 +25.9 96 +40 +40 очень
душно
1011.3 1011.0
ЮЗ 5 10 км гроза, ливневой дождь 10/8 240 м
[Cb cap]
+28.1 +26.6 92 +44 +44 опасность
перегрева
1012.2 1011.9 +25.0 21 21
З 2 15 км в посл. час ливневой дождь {гроза} 10/8 240 м
[Cb cap]
+27.0 +25.7 93 +40 +42 очень
душно
1010.4 1010.1 7
СЗ 2 18 км осадки на расстоянии {гроза, ливн. дождь} 10/6 500 м
[Cu Sc Ac lent Cs]
+29.8 +25.6 78 +44 +45 опасность
перегрева
1007.5 1007.2 7
С 2 15 км осадки на расстоянии 9/6 450 м
[Cb calv Ac lent Ci sp]
+28.6 +26.4 88 +44 +44 опасность
перегрева
1008.6 1008.3
СЗ 2 10 км гроза без осадков {ливн. дождь} 10/8 420 м
[Cb cap]
+25.6 +23.9 90 +35 +35 очень
душно
1010.5 1010.2 +30.6
ЮЗ 2 2000 м сильн. дождь {гроза, ливн. дождь} 10/10 240 м
[Cb cap Ac As]
+24.2 +23.8 98 +33 +33 очень
душно
1009.8 1009.5 21
штиль 0 8000 м дождь 10/10 180 м
[Cb cap Ac As]
+24.1 +24.0 99 +33 +33 очень
душно
1011.1 1010.8 55
ЮЗ 3 5000 м слаб. дождь 10/10 210 м
[Cb cap Ac As]
+24.8 +24.5 98 +35 +35 очень
душно
1012.4 1012.1 +22.0 98 98
З 2 8000 м слаб. дождь 10/9
[Cb cap Ac As]
+25.2 +23.9 93 +35 +35 очень
душно
1011.0 1010.7 2
штиль 0 10 км осадки на расстоянии {дождь} 10/8 420 м
[Cb cap Ac As]
+26.4 +24.7 90 +37 +38 очень
душно
1008.2 1007.9 3
штиль 0 15 км осадки на расстоянии 10/6
[Cu Sc Ac As]
+26.5 +24.6 89 +37 +37 очень
душно
1009.2 1008.9
штиль 0 8000 м в посл. час ливневой дождь 10/9 420 м
[Cb cap]
+24.8 +23.8 94 +34 +34 очень
душно
1010.3 1010.0 +28.7 11
штиль 0 10 км гроза без осадков {ливн. дождь} 10/8 420 м
[Cb cap]
+27.1 +25.6 92 +40 +40 очень
душно
1007.7 1007.4 2
З 5 2000 м ливневой дождь {гроза} 10/10 240 м
[Cb cap]
+26.7 +25.0 90 +38 +38 очень
душно
1010.1 1009.8 19
штиль 0 10 км гроза без осадков {ливн. дождь} 10/10 420 м
[Cb cap]
+26.4 +24.4 89 +37 +37 очень
душно
1010.3 1010.0 +23.3 35
СЗ 2 10 км осадки на расстоянии {гроза, ливн. дождь} 10/10 420 м
[Cb cap]
+27.0 +25.0 89 +39 +39 очень
душно
1009.9 1009.6 4
С 2 10 км слаб. ливневой дождь {гроза} 10/10 420 м
[Cb cap]
+28.0 +25.2 85 +41 +41 опасность
перегрева
1008.3 1008.0 4
штиль 0 10 км осадки на расстоянии {ливн. дождь} 10/10 420 м
[Cb cap]
+27.4 +24.7 85 +39 +39 очень
душно
1010.3 1010.0 0.0
СЗ 5 10 км ливневой дождь 10/10 240 м
[Cb cap]
+25.3 +24.7 96 +36 +36 очень
душно
1012.8 1012.5 +28.1 17
штиль 0 2000 м слаб. дождь {ливн. дождь} 10/10 240 м
[Cb cap]
+25.3 +24.9 98 +36 +36 очень
душно
1010.2 1009.9 44
штиль 0 8000 м в посл. час дождь 10/10 420 м
[Cb cap]
+25.3 +24.7 96 +36 +36 очень
душно
1012.6 1012.3 +23.4 74
штиль 0 15 км осадки на расстоянии 10/9 420 м
[Cb cap Ac As]
+29.0 +24.8 78 +41 +42 опасность
перегрева
1009.9 1009.6
З 4 10 км слаб. ливневой дождь 10/10 420 м
[Cb cap]
+26.3 +24.4 89 +37 +37 очень
душно
1009.8 1009.5 0.0
штиль 0 8000 м слаб. дождь {ливн. дождь} 10/10 420 м
[Cb cap]
+25.3 +24.1 93 +35 +35 очень
душно
1010.0 1009.7 2
штиль 0 15 км осадки на расстоянии {ливн. дождь, дождь} 10/10 420 м
[Cb cap]
+26.2 +24.3 89 +36 +36 очень
душно
1012.1 1011.8 +29.3 2
СЗ 3 18 км осадки на расстоянии 10/10 500 м
[Cu Sc]
+26.7 +24.1 86 +37 +37 очень
душно
1009.7 1009.4
штиль 0 18 км осадки на расстоянии 9/8 500 м
[Cu Sc Ci sp]
+26.1 +25.0 94 +37 +38 очень
душно
1011.3 1011.0
штиль 0 25 км 9/5 540 м
[Cu Sc Ac lent Cs]
+29.6 +25.7 80 +44 +50 опасность
перегрева
1012.1 1011.8 +24.9 2
З 2 25 км {ливн. дождь} 9/5 540 м
[Cu Sc Ac lent Cs]
+30.5 +25.6 75 +45 +51 опасность
перегрева
1010.6 1010.3 3
З 3 25 км {ливн. дождь} 9/8 540 м
[Cu Sc Ac lent Ci sp]
+30.2 +25.1 74 +44 +45 опасность
перегрева
1009.2 1008.9 3
Местоположение метеостанции Агалега (Маврикий): широта -10.43 долгота 56.75 высота над уровнем моря 3 м.
В архиве по умолчанию представлена погода на Агалега за последнюю неделю. Архивные данные за месяц целиком и за предыдущие месяцы, начиная с января 2011 года, Вы можете получить, выбрав интересующий диапазон дат из раскрывающегося списка и нажав кнопку "Найти!".
*Определитесь, кто Вы:
Внимание! Время в таблицах - всемирное. Для получения местного времени необходимо прибавить поправку, которая равна 4 ч.
Смотрите также архив погоды в соседних городах и на ближайших метеорологических станциях:
Партнеры нашего сайта:      
Пояснения к столбцам:
  • Ветер - указаны скорость ветра в м/с - средняя за 10 мин, порывы в срок и между сроками (в фигурных скобках) и направление, откуда дует ветер: С - северный,
  • СВ - северо-восточный, В - восточный, ЮВ - юго-восточный, Ю - южный, ЮЗ - юго-западный, З - западный, СЗ - северо-западный.
  • Видимость - горизонтальная дальность видимости в метрах или километрах. При видимости от 1 до 10 км при отсутствии осадков обычно наблюдается дымка, при ухудшении видимости до 1 км и менее - туман. В сухую погоду видимость может ухудшаться дымом, пылью или мглою.
  • Явления - указаны атмосферные явления, наблюдавшиеся в срок или в последний час перед сроком; фигурными скобками обозначены явления, наблюдавшиеся между сроками (за 1-3 часа до срока); квадратными скобками обозначены град или гололедные отложения с указанием их диаметра в мм.
  • Облачность - указаны через наклонную черту общая и нижняя облачность в баллах и высота нижней границы облаков в метрах; квадратными скобками обозначены формы облаков: Ci - перистые, Cs - перисто-слоистые, Cc - перисто-кучевые, Ac - высококучевые, As - высокослоистые, Sc - слоисто-кучевые, Ns - слоисто-дождевые, Cu - кучевые, Cb - кучево-дождевые. Подробнее классификацию облаков см. в Атласе облаков (PDF).
  • T - Температура воздуха - температура, измеренная на высоте 2 м над землей.
  • Td - Температура точки росы - температура, при понижении до которой содержащийся в воздухе водяной пар достигнет насыщения.
  • f - Относительная влажность воздуха - влажноcть воздуха, измеренная на высоте 2 м над землей.
  • Te - Эффективная температура - температура, которую ощущает одетый по сезону человек в тени. Характеристика душности погоды. При расчете учитывается влияние влажности воздуха и скорости ветра на теплоощущения человека.
  • Tes - Эффективная температура на солнце - температура, которую ощущает человек, с поправкой на солнечный нагрев. Характеристика знойности погоды. Зависит от высоты солнца над горизонтом, облачности и скорости ветра. Ночью, в пасмурную погоду, а также при ветре 12 м/с и более поправка равна нулю.
  • P - Атмосферное давление - приведенное к уровню моря атмосферное давление.
  • Po - Атмосферное давление - измеренное на уровне метеостанции атмосферное давление.
  • Tmin - Минимальная температура - минимум температуры воздуха на высоте 2 м над землей.
  • Tmax - Максимальная температура - максимум температуры воздуха на высоте 2 м над землей.
  • R - Количество осадков - Количество выпавших осадков за период времени, мм. При наведении курсора мыши на число - период времени, за который выпало указанное количество осадков.
  • R24 - Количество осадков - Количество выпавших осадков за 24 часа, мм.
  • S - Снежный покров - Высота снежного покрова, см. При наведении курсора мыши на число - состояние снежного покрова и степень покрытия местности в баллах.